SCP
0 0 0 0 0 0 0 0 1 2 2 1 1 2 2 2 2 3 2 2 3 3 3 3 3 3 3 2 2 3 3 3 2 2 2 2 1 2 2 2 1 1 1 1
0 0 0 0 0 0 0 0 1 1 1 1 1 2 2 2 2 3 3 3 3 4 4 3 3 4 4 3 3 3 3 2 2 2 2 2 2 2 2 2 2 2 2 2
0 0 0 0 0 0 0 0 1 1 1 1 1 2 2 2 2 2 3 3 4 6 5 4 4 5 6 5 4 3 2 2 3 3 3 3 2 2 3 3 3 3 3 3
0 0 0 0 0 0 0 0 0 1 1 1 2 2 2 2 2 2 3 3 5 6 6 4 3 5 7 7 6 4 4 3 4 4 5 5 5 4 5 5 5 5 4 4
0 0 0 0 0 1 0 0 0 1 1 1 2 2 2 1 1 2 2 3 4 6 6 4 3 5 8 10 9 7 6 5 5 6 6 7 7 7 7 6 6 5 5 5
0 0 0 0 0 1 0 0 0 1 1 1 1 1 1 1 1 1 2 2 3 5 5 4 3 5 8 11 11 9 7 6 6 6 6 7 7 7 8 7 7 6 5 6
0 0 0 0 1 1 0 0 1 1 1 1 1 1 1 1 1 2 2 2 3 4 4 3 2 3 6 8 8 6 5 5 5 5 5 4 4 5 7 7 7 7 6 5
0 0 0 0 1 1 0 0 1 1 1 1 1 1 1 1 2 2 3 3 3 4 4 3 2 2 2 3 3 3 4 4 4 4 4 3 3 4 4 5 6 6 6 6
0 0 0 0 1 1 1 1 1 1 1 1 1 1 1 1 2 2 2 2 3 3 3 3 2 2 2 2 3 3 4 4 4 4 3 3 3 3 3 3 3 4 5 6
0 0 0 0 1 1 1 1 1 1 1 1 1 1 1 2 2 3 2 2 2 3 3 3 3 3 3 3 3 4 4 4 4 4 3 3 3 3 3 3 2 2 3 4
0 0 0 0 1 1 1 1 1 1 1 1 1 1 2 2 3 3 3 3 3 2 3 3 3 3 3 3 4 4 4 4 4 4 3 3 3 3 2 2 2 1 2 2
0 0 0 0 1 1 1 1 1 1 1 1 1 2 2 3 3 4 4 4 3 3 3 3 3 3 3 3 3 4 4 4 4 4 3 3 3 2 2 1 1 1 1 1
0 0 0 0 0 1 1 1 1 1 1 1 1 2 2 3 3 4 4 4 3 3 3 3 3 3 4 4 4 4 4 4 4 4 4 3 3 2 1 1 1 0 0 0
0 0 0 0 0 0 1 1 1 1 1 1 2 2 2 2 2 3 4 4 4 4 4 4 4 4 4 4 4 4 4 3 3 3 3 3 3 2 1 1 1 0 0 0
0 0 0 0 0 1 1 2 2 2 2 2 2 2 2 2 2 2 3 4 4 5 5 5 5 4 4 4 4 3 3 3 3 3 3 2 2 1 1 1 1 1 1 2
0 0 0 0 1 1 1 2 2 2 2 2 2 1 1 1 1 2 3 4 4 5 4 4 5 4 4 4 4 4 4 4 4 3 2 2 1 1 1 1 1 2 3 3
0 0 0 0 1 1 1 1 1 1 1 1 1 1 1 1 1 2 2 3 3 3 3 4 4 5 4 4 4 5 6 5 4 4 3 2 2 1 1 1 2 3 4 4
0 0 0 1 1 1 1 1 1 1 1 1 0 0 0 1 1 2 2 2 2 2 2 3 4 4 4 4 4 5 6 6 5 5 4 4 3 2 2 1 2 3 4 3
0 0 0 0 0 0 0 0 0 0 0 0 0 0 0 1 1 1 1 1 1 1 1 1 2 2 3 3 3 4 5 5 6 6 6 5 4 4 3 2 2 3 3 2
0 0 0 0 0 0 0 0 0 0 0 0 0 0 0 1 1 1 1 1 1 1 1 0 0 1 1 1 1 2 3 4 5 6 6 6 5 5 4 4 3 3 2 2
1 0 0 0 0 0 0 0 0 0 0 0 0 0 0 1 1 1 1 1 1 0 0 0 0 0 0 0 0 1 1 2 3 5 5 6 6 5 5 5 4 4 3 3
0 0 0 1 1 0 0 0 0 0 0 0 0 0 1 1 1 1 1 0 0 0 0 0 0 0 0 0 0 0 0 0 1 2 3 4 4 4 5 5 5 5 4 4
0 0 0 0 0 0 0 0 0 0 0 0 0 1 1 1 0 0 0 0 0 0 0 0 0 0 0 0 0 0 0 0 0 1 2 2 2 3 3 3 4 4 4 4
0 0 0 0 0 0 0 0 0 0 0 0 0 0 0 0 0 0 0 0 0 0 0 0 0 0 0 0 0 0 0 0 0 0 1 1 1 1 1 1 2 2 3 3
0 0 0 0 0 0 0 0 0 0 0 0 0 0 0 0 0 0 0 0 0 0 0 0 0 0 0 0 0 0 0 0 0 0 0 0 0 0 0 0 0 1 1 2
0 0 0 0 0 0 0 0 0 0 0 0 0 0 0 0 0 0 0 0 0 0 0 0 0 0 0 0 0 0 0 0 0 0 0 0 0 0 0 0 0 0 0 1
0 0 0 0 0 0 0 0 0 0 0 0 0 0 0 0 0 0 0 0 0 0 0 0 0 0 0 0 0 0 0 0 0 0 0 0 0 0 0 0 0 0 0 0
Wind_Speed
3 2 3 2 2 3 4 6 7 6 6 7 4 3 2 0 1 2 1 1 2 2 2 2 3 3 3 3 3 4 4 4 4 4 3 3 2 2 2 2 2 2 2 2
1 1 2 1 1 2 2 2 3 2 4 4 2 1 1 1 1 2 1 2 2 2 3 3 3 3 3 3 4 4 4 4 3 3 3 3 2 2 2 1 1 1 2 2
2 2 3 1 3 2 2 1 3 4 5 2 1 1 2 1 1 2 2 2 3 3 3 3 3 3 4 3 3 3 3 3 2 2 2 2 2 2 2 2 1 1 2 2
2 2 3 6 1 2 3 1 2 2 2 2 2 2 1 1 2 2 1 1 2 2 2 1 2 2 2 2 2 2 2 2 2 2 3 3 2 2 2 2 1 2 2 2
4 2 3 4 2 2 2 1 1 2 1 0 1 2 2 1 0 1 1 2 2 2 2 2 2 2 3 3 2 2 2 2 3 3 3 3 3 3 2 2 2 2 2 2
4 4 5 6 3 1 3 2 2 1 2 1 2 1 4 3 1 1 1 1 1 2 2 3 2 3 3 2 2 2 3 3 3 3 3 3 3 3 2 2 2 2 2 2
4 3 6 5 4 2 3 5 2 2 2 2 2 4 3 1 1 1 1 1 2 3 2 1 2 3 3 2 2 2 1 1 1 2 2 2 2 1 1 1 1 1 1 2
4 3 6 3 2 4 5 2 0 1 1 1 1 1 0 0 1 1 1 2 2 3 2 1 2 3 2 1 1 0 1 1 1 0 1 1 1 1 1 1 1 1 1 2
6 6 4 1 2 2 3 1 1 1 0 1 1 1 1 0 1 1 1 2 2 3 3 1 1 2 2 1 0 1 2 1 0 0 0 1 2 2 1 1 1 1 1 2
1 3 3 2 1 0 2 2 1 1 1 2 1 1 0 0 0 1 1 1 2 3 3 1 0 0 1 1 1 2 1 1 1 1 1 0 1 2 2 2 2 2 2 3
2 3 2 3 2 1 1 2 2 2 1 1 2 1 1 0 1 1 0 1 2 2 2 2 1 0 0 1 2 1 1 1 1 1 1 1 1 2 3 4 4 4 3 3
5 5 3 3 2 1 1 1 1 1 2 1 1 2 1 1 1 1 1 1 1 1 1 1 1 1 1 1 2 2 1 1 1 1 1 1 1 1 2 2 3 4 4 4
4 2 3 2 1 1 0 1 0 0 1 0 0 2 1 0 0 0 1 1 2 2 1 1 1 2 2 2 2 2 2 2 1 1 2 2 2 2 2 2 2 2 4 4
2 1 0 1 2 1 0 0 1 1 1 1 1 1 2 1 0 0 1 1 1 1 0 1 2 2 2 1 2 2 2 2 2 2 2 2 2 2 2 2 2 2 3 4
2 2 3 2 1 0 1 2 2 2 1 1 1 1 1 1 1 2 1 0 1 0 1 1 2 3 2 1 2 2 2 2 2 2 2 2 2 2 2 2 3 2 2 2
1 1 2 1 1 1 1 1 1 1 0 0 0 1 1 1 1 1 1 0 0 1 2 2 3 4 2 1 1 2 2 3 2 2 2 2 2 2 2 3 3 3 3 2
2 1 1 1 1 1 1 2 3 2 1 1 2 1 1 0 1 1 2 1 1 2 2 2 3 3 2 1 2 2 2 2 2 2 2 2 3 3 3 3 3 3 3 3
4 5 5 6 4 3 2 2 2 2 2 2 1 0 0 1 2 3 2 2 1 2 2 2 2 2 1 1 1 1 1 2 2 2 2 2 3 3 3 3 3 4 3 2
4 4 4 4 4 3 3 3 3 3 2 2 2 2 2 2 2 2 2 1 1 2 3 3 3 1 1 2 1 1 1 2 2 2 2 3 3 2 2 3 3 3 3 2
3 3 3 3 2 3 3 3 3 2 2 2 2 1 1 2 2 2 1 2 3 3 3 2 2 2 2 2 1 1 1 2 2 2 2 2 2 2 3 3 3 3 3 3
3 3 3 3 2 2 3 3 3 3 2 2 3 3 2 2 1 1 1 2 4 2 1 1 1 1 2 2 1 1 1 2 2 2 3 3 3 3 3 3 3 3 3 3
2 2 2 2 2 1 1 2 2 3 2 2 2 2 2 1 1 1 2 3 3 3 2 2 2 2 2 2 1 1 2 2 3 2 3 3 2 2 3 3 3 3 3 3
2 2 2 2 2 2 1 1 1 2 2 3 3 3 3 2 2 2 3 3 2 3 2 2 3 4 3 2 2 2 2 3 3 3 3 3 3 3 3 3 3 3 3 3
2 2 2 2 2 2 1 1 1 1 1 1 2 2 2 2 2 2 2 3 3 3 2 3 5 4 3 2 2 2 2 2 3 3 2 2 2 2 2 2 2 2 2 3
1 2 2 2 1 1 2 1 0 0 0 0 1 2 2 2 2 2 2 2 3 3 3 4 4 4 2 2 2 2 2 3 3 2 2 2 2 2 2 2 2 2 2 2
1 1 1 1 1 1 1 1 1 1 1 0 1 2 1 1 1 1 1 2 3 3 3 3 3 3 2 2 2 3 3 3 3 2 2 2 2 2 2 2 3 3 3 3
1 1 1 1 0 1 1 1 1 2 2 2 1 2 1 1 1 1 2 2 2 2 2 3 3 2 2 3 3 3 3 3 2 2 2 2 2 2 3 3 3 3 3 3
Wind_Direction
220 215 163 167 167 157 168 179 180 217 223 255 268 259 275 299 112 102 83 100 127 141 147 151 155 166 173 176 171 165 165 176 189 197 196 192 193 206 212 221 232 240 243 256
352 26 127 89 43 158 183 173 191 201 249 267 291 37 11 334 152 149 156 166 159 158 159 164 175 182 177 180 181 172 173 189 192 181 184 193 192 194 209 223 235 242 255 257
238 309 63 298 253 189 174 191 172 207 240 263 8 318 254 237 196 195 193 185 178 184 191 181 185 188 193 189 171 173 181 188 187 184 186 203 200 191 219 231 234 253 273 275
137 86 212 239 246 150 143 174 200 212 235 201 208 248 283 226 200 216 204 205 195 177 186 179 163 162 160 146 153 169 184 195 187 183 193 196 189 193 233 241 234 243 256 269
123 158 265 287 269 175 166 247 245 182 232 300 58 55 347 314 216 227 204 183 179 161 145 127 125 134 128 129 150 170 194 208 208 197 194 193 196 200 214 219 242 254 260 262
125 152 220 242 272 252 124 266 262 181 192 168 79 57 278 300 38 59 69 99 110 95 90 94 107 118 117 137 162 198 216 216 209 196 191 194 203 209 216 211 230 247 267 273
145 188 250 260 288 94 149 243 254 212 221 203 202 213 236 288 31 103 110 113 110 103 95 104 118 117 120 136 209 241 229 167 171 183 190 195 203 216 207 200 213 252 289 305
144 172 246 288 92 152 210 250 166 194 223 197 263 321 40 120 97 98 90 98 109 106 87 70 110 124 123 183 244 90 101 106 119 209 218 172 170 201 183 175 199 248 275 297
184 207 240 271 199 207 160 142 160 140 7 110 52 341 335 356 94 83 97 122 123 120 104 72 96 131 141 234 110 107 109 125 161 205 267 187 185 188 187 200 212 236 248 267
244 265 275 290 302 55 141 143 144 130 126 117 134 171 319 342 38 95 100 122 121 116 118 128 294 156 176 185 136 123 133 166 181 185 235 266 228 207 204 210 220 228 242 254
250 271 322 323 328 340 44 58 55 34 38 144 136 147 165 197 232 205 171 130 123 134 154 185 198 261 271 166 137 134 158 185 201 215 224 240 251 241 230 224 217 218 228 231
218 220 193 245 277 311 60 27 55 38 353 351 138 165 168 201 222 184 168 145 138 153 172 202 179 227 262 214 165 159 189 222 233 238 237 233 250 304 307 265 248 233 229 226
221 218 201 245 283 297 250 296 5 75 185 261 66 141 146 179 225 222 174 184 190 188 190 201 213 239 249 228 198 193 207 220 233 244 238 229 228 236 281 315 313 267 250 243
218 155 286 278 268 299 326 16 42 34 27 126 129 115 116 102 46 333 262 246 208 168 204 230 228 250 256 218 193 204 213 222 223 229 235 234 233 238 240 254 284 300 288 260
271 208 208 228 197 56 89 82 59 22 33 41 82 111 120 130 241 274 284 279 102 43 311 296 278 278 275 208 194 214 217 222 218 222 231 241 246 247 250 256 259 272 293 293
240 91 131 140 178 193 101 101 132 232 254 241 230 237 237 210 232 299 307 278 168 261 277 284 283 283 284 241 226 241 243 243 228 221 233 244 250 248 249 250 254 256 258 263
157 188 176 191 214 224 216 207 198 211 223 230 246 257 272 342 4 303 285 276 247 259 265 263 272 289 292 259 225 237 245 252 250 240 240 241 242 243 244 245 249 254 253 241
204 208 201 192 194 206 239 231 211 217 228 232 232 166 208 229 252 268 280 304 331 323 303 282 276 291 298 285 260 252 243 242 243 248 255 256 254 249 247 250 255 258 266 259
218 212 214 212 203 199 210 217 223 223 226 204 191 217 239 251 255 261 269 281 269 283 290 297 300 302 295 292 294 264 275 281 282 279 267 262 260 256 253 252 253 252 253 257
219 208 205 214 217 203 202 209 208 214 228 202 193 208 266 278 274 267 257 262 257 254 263 286 301 303 297 298 310 273 268 270 277 284 280 270 267 269 267 264 260 257 253 252
212 205 196 195 202 207 203 199 192 213 233 201 192 211 232 260 274 261 250 284 291 298 291 283 285 288 290 292 306 285 267 265 269 271 270 268 265 266 271 272 270 268 267 262
202 186 184 172 168 203 220 196 189 202 221 218 211 208 213 248 270 278 252 244 265 288 294 282 282 277 285 295 282 263 260 261 264 266 265 262 258 262 272 275 271 270 269 266
175 166 167 172 177 188 212 211 198 203 216 220 217 214 216 231 230 228 270 274 277 283 284 273 274 276 286 289 272 267 269 269 266 262 258 255 256 255 259 267 272 276 275 269
144 141 154 165 150 143 182 248 246 229 220 231 229 217 206 221 266 258 244 264 274 278 273 270 272 274 278 265 264 266 268 271 270 264 258 256 259 261 260 263 267 270 270 267
117 123 130 133 147 188 206 209 172 328 25 300 274 252 230 214 222 252 261 267 275 283 287 281 272 269 265 260 262 266 267 266 267 264 257 259 262 261 262 261 261 267 268 267
96 129 162 187 191 188 183 161 175 224 199 241 285 281 280 283 269 270 272 269 275 285 291 291 286 272 263 261 265 270 274 275 268 259 256 256 255 256 260 262 266 262 259 260
47 56 72 48 30 162 165 172 191 218 215 206 244 267 270 282 280 270 270 274 280 284 288 292 293 281 268 265 267 270 273 271 262 256 254 249 247 250 253 252 255 263 265 263